Location: Unspecified
(0.0000°N, 0.0000°E)
Time: 12:48:18
(UTC+00:00)

Explorer 11/Cluster Stage 4 - Pass Details

Date: 23 September 2019
Orbit: 467 x 1259 km, 28.8° (Epoch: 13 October)

Event Time Altitude Azimuth Distance (km) Brightness Sun altitude
Rises 18:43:55 0° 267° (W) 4,195 12.4 -12.9°
Reaches altitude 10° 18:47:33 10° 279° (W) 3,194 11.1 -13.8°
Maximum altitude 18:53:48 25° 330° (NNW) 2,171 9.1 -15.4°
Drops below altitude 10° 18:59:31 10° 22° (NNE) 2,879 9.2 -16.8°
Enters shadow 19:01:43 - 33° (NNE) 3,447 9.6 -17.3°
